#timestamp,LO_Frequency,Hit,StdDev 
1552294815.7,286046996.5,N
1552294835.5,286047000.9,N
1552294855.3,286047000.9,N
1552294875.2,286047000.4,N
1552294895.0,286046999.9,N
1552294895.9,286046999.9,N
1552294915.8,286047000.6,N
1552294935.6,286046998.5,N
1552294955.4,286046999.2,N
1552294975.3,286046999.6,N
1552294995.1,286046998.7,N
1552295015.9,286046999.1,N
1552295035.7,286046997.4,N
1552295055.5,286046997.3,N
1552295075.4,286046995.1,N
1552295095.2,286046999.3,N
1552295115.0,286046998.3,N
1552295116.0,286046998.3,N
1552295135.8,286046998.5,N
1552295155.6,286046998.2,N
1552295175.5,286046997.0,N
1552295195.3,286046999.4,N
1552295215.1,286046998.2,N
1552295235.9,286047001.2,N
1552295255.7,286047000.8,N
1552295275.6,286047001.0,N
1552295295.4,286046999.9,N
1552295315.2,286046998.4,N
1552295335.1,286046996.5,N
1552295336.0,286046996.5,N
1552295355.8,286046996.6,N
1552295375.6,286046998.9,N
1552295395.5,286046999.0,N
1552295415.3,286046997.0,N
1552295435.2,286046996.9,N
1552295455.0,286046998.6,N
1552295455.9,286046998.6,N
1552295475.7,286046999.3,N
1552295495.6,286046999.0,N
1552295515.4,286046998.3,N
1552295535.3,286047000.3,N
1552295555.1,286046996.6,N
1552295556.0,286046996.6,N
1552295575.8,286046996.7,N
1552295595.7,286046997.9,N
1552295615.5,286046998.0,N
1552295635.3,286046996.9,N
1552295655.2,286046999.0,N
1552295675.0,286046999.3,N
1552295675.9,286046999.3,N
1552295695.8,286046998.4,N
1552295715.6,286046999.0,N
1552295735.4,286046999.5,N
1552295755.3,286046996.9,N
1552295775.1,286046997.0,N
1552295795.8,286046996.9,N
1552295815.7,286046997.0,N
1552295835.5,286046997.7,N
1552295855.4,286046998.0,N
1552295875.2,286046998.0,N
1552295895.0,286046999.6,N
1552295895.9,286046999.6,N
1552295915.8,286046997.3,N
1552295935.6,286046996.8,N
1552295955.4,286046999.4,N
1552295975.3,286046996.5,Y
1552295995.1,286047000.0,P
1552296015.9,286046998.1,N
1552296035.7,286047000.6,N
1552296055.5,286046998.2,N
1552296075.4,286046998.2,N
1552296095.2,286047001.0,N
1552296115.0,286047002.8,N
1552296115.9,286047002.8,N
1552296135.8,286047002.7,N
1552296155.6,286046999.7,N
1552296175.5,286047000.7,N
1552296195.3,286046999.7,N
1552296215.1,286047002.3,N
1552296235.9,286047000.2,N
1552296255.7,286047000.0,N
1552296275.5,286046998.8,N
1552296295.4,286046996.6,N
1552296315.2,286046996.5,N
1552296335.1,286046998.9,N
1552296336.0,286046998.9,N
1552296355.8,286046998.6,N
1552296375.6,286047001.1,N
1552296395.5,286047001.2,N
1552296415.3,286046998.3,N
1552296435.1,286046999.9,N
1552296455.9,286047002.8,N
1552296475.7,286047000.1,N
1552296495.6,286047002.5,N
1552296515.4,286047002.8,N
1552296535.2,286046999.7,N
1552296555.1,286046999.8,N
1552296556.0,286046999.8,N
1552296575.8,286047000.5,N
1552296595.7,286047000.6,N
1552296615.5,286047002.8,N
1552296635.3,286047000.5,N
1552296655.2,286046998.5,N
1552296675.0,286046998.5,N
1552296675.9,286046998.5,N
1552296695.8,286047001.2,N
1552296715.6,286046999.8,N
1552296735.4,286047000.1,N
1552296755.3,286047000.2,N
1552296775.1,286046999.6,N
1552296795.8,286046997.7,N
1552296815.7,286046996.1,N
1552296835.6,286046995.2,N
1552296855.4,286046997.8,N
1552296875.2,286046998.8,N
1552296895.1,286046998.5,N
1552296896.0,286046998.5,N
1552296915.8,286046999.5,N
1552296935.7,286046998.6,N
1552296955.5,286047003.8,N
1552296975.3,286046999.8,N
1552296995.2,286047000.3,N
1552297015.0,286047000.5,N
1552297035.0,286047002.5,N
1552297035.9,286047002.5,N
1552297055.8,286046999.9,N
1552297075.6,286047000.6,N
1552297095.4,286047002.7,N
1552297115.3,286046999.9,N
1552297135.1,286047001.0,N
1552297155.9,286046998.7,N
1552297175.7,286047000.9,N
1552297195.5,286047000.8,N
1552297215.4,286046999.2,N
1552297235.2,286046999.4,N
1552297255.0,286046998.1,N
1552297255.9,286046998.1,N
1552297275.8,286047000.2,N
1552297295.6,286046999.9,N
1552297315.5,286047002.6,N
1552297335.3,286047000.8,N
1552297355.1,286046999.1,N
1552297375.9,286046998.7,N
1552297395.7,286047000.6,N
1552297415.5,286047000.2,N
1552297435.4,286047000.3,N
1552297455.2,286047000.2,N
1552297475.1,286047000.0,N
1552297476.0,286047000.0,N
1552297495.8,286047001.1,N
1552297515.6,286046999.8,N
1552297535.5,286047000.3,N
1552297555.3,286047000.8,N
1552297575.1,286046998.7,N
1552297595.9,286046998.3,N
1552297615.7,286046996.5,Y
1552297635.6,286046999.8,P
1552297655.4,286047002.4,P
1552297675.2,286047000.7,N
1552297695.1,286047000.7,N
1552297696.0,286047000.7,N
1552297715.8,286046999.8,N
1552297735.7,286046999.7,N
1552297755.5,286046998.6,N
1552297775.3,286046999.4,N
1552297795.2,286046996.8,Y
1552297815.0,286046999.1,P
1552297815.9,286046999.1,N
1552297835.7,286046998.0,P
1552297855.6,286046997.6,Y
1552297875.4,286046995.1,P
1552297895.3,286046995.0,N
1552297915.1,286046997.0,N
1552297935.8,286046998.6,N
1552297955.7,286047000.8,N
1552297975.5,286047002.8,N
1552297995.3,286047004.0,N
1552298015.2,286047004.3,N
1552298035.0,286047004.1,N
1552298035.9,286047004.1,N
1552298055.8,286047003.2,N
1552298075.6,286047003.3,N
1552298095.4,286047004.2,N
1552298115.3,286047002.7,N
1552298135.1,286047000.4,N
1552298155.9,286047002.2,N
1552298175.7,286047000.3,N
1552298195.5,286047000.1,N
1552298215.4,286047002.7,N
1552298235.2,286047002.8,N
1552298255.0,286047001.2,N
1552298255.9,286047001.2,N
1552298275.8,286047000.9,N
1552298295.6,286047000.9,N
1552298315.5,286046999.9,N
1552298335.3,286047000.5,N
1552298355.1,286047000.3,N
1552298375.9,286047000.6,N
1552298395.7,286047000.1,N
